Zurück zum Katalog

STARLINK-37693

AktivKommunikationVLEO
NORAD 100039·PAYLOAD·🇺🇸 United States

Gestartet Jul 14, 2026 von Cape Canaveral Space Force Station

Loading…

Nächste Überflüge (nächste 24 Stunden)

TLE

AktuellSource: Space-Track

Epoche: Sep 14, 2026, 09:20 UTC

1 A0039U 26161M   26257.38912158  .00022862  00000-0  68563-3 0  9998
2 A0039  53.1602  26.1823 0001301 100.6796 259.4353 15.34403171  9679

Verfolge STARLINK-37693 in Echtzeit mit AllMySat

Download on the App Store